Location: Lhota
(50.0887°N, 14.0116°E)
Time: 07:19:28
(UTC+00:00)

MetOp-A - Pass Details

Date: 19 May 2025
Orbit: 521 x 774 km, 98.3° (Epoch: 22 June)

Event Time Altitude Azimuth Distance (km) Brightness Sun altitude
Exits shadow 22:11:09 35° 191° (S) 1,237 4.6 -19.1°
Maximum altitude 22:13:15 63° 258° (WSW) 867 4.2 -19.2°
Drops below altitude 10° 22:18:24 10° 340° (NNW) 2,334 7.7 -19.3°
Sets 22:20:46 0° 344° (NNW) 3,258 8.9 -19.4°
